Location: Αθήνα
(37.9839°N, 23.7283°E)
Time: 20:17:39
(UTC+03:00)

ISS - Pass Details

Date: 26 June 2024
Orbit: 410 x 424 km, 51.6° (Epoch: 12 July)

Event Time Altitude Azimuth Distance (km) Brightness Sun altitude
Exits shadow 04:00:45 54° 286° (WNW) 509 -3.6 -19.0°
Maximum altitude 04:01:09 60° 323° (NW) 479 -3.5 -18.9°
Drops below altitude 10° 04:04:27 10° 44° (NE) 1,491 0.3 -18.5°
Sets 04:06:35 0° 48° (NE) 2,360 1.7 -18.3°
